Location: Santa Fe
(35.6870°N, 105.9370°W)
Time: 03:24:18
(UTC-06:00)

Amateur Radio Satellites - All Passes

Search period start: 29 August 2015 02:54
Search period end: 30 August 2015 02:54
Location: Santa Fe, 35.6870°N, 105.9370°W

Satellite Date Start Highest point End Downlink Frequencies (MHz)
Time Altitude Azimuth
BEESAT 29 Aug 02:55:30 02:59:44 31° 264° (W) 03:03:55 436.000
BEESAT 2 29 Aug 02:55:35 02:57:07 12° 251° (WSW) 02:58:24 435.950
JAS-2 29 Aug 02:56:53 03:01:48 21° 88° (E) 03:06:35 435.910
AIST 2 29 Aug 03:07:24 03:11:25 48° 245° (WSW) 03:15:21 435.215
RS-15 29 Aug 03:10:12 03:22:00 67° 246° (WSW) 03:34:02 29.354- 29.394
ITAMSAT 1 29 Aug 03:10:28 03:15:23 44° 99° (E) 03:20:20 435.822/435.867
STARS 29 Aug 03:10:49 03:14:44 33° 72° (ENE) 03:18:44 437.465
KKS-1 29 Aug 03:20:45 03:25:11 78° 76° (ENE) 03:29:39 437.445
SWISSCUBE 29 Aug 03:22:42 03:25:31 15° 269° (W) 03:28:07 437.505
Cosmos 2499 29 Aug 03:44:01 03:49:45 22° 83° (E) 03:56:06 435.465 / 435.565
SO-50 29 Aug 03:59:05 04:00:53 12° 319° (NW) 04:02:29 436.795
Oscar 19 29 Aug 03:59:38 04:02:43 15° 294° (WNW) 04:05:33 437.125/150
Gurwin Techsat 1B 29 Aug 04:13:37 04:18:29 36° 289° (WNW) 04:23:16 435.225
AO-7 29 Aug 04:23:07 04:30:43 40° 99° (E) 04:38:24 29.400- 29.500
HORYU 2 29 Aug 04:26:18 04:30:11 29° 96° (E) 04:34:05 437.375
VERMONT LUNAR 29 Aug 04:27:16 04:29:57 30° 150° (SSE) 04:32:38 437.305
GONETS M04 29 Aug 04:30:55 04:39:14 48° 284° (WNW) 04:47:32
PCSat 29 Aug 04:34:15 04:37:14 14° 314° (NW) 04:40:00 145.827
JAS-2 29 Aug 04:40:33 04:47:30 57° 288° (WNW) 04:53:36 435.910
MOZHAYETS 4 29 Aug 04:46:39 04:51:18 88° 72° (ENE) 04:55:56
STARS 29 Aug 04:48:08 04:51:17 18° 267° (W) 04:54:18 437.465
ITAMSAT 1 29 Aug 04:50:50 04:54:37 20° 293° (WNW) 04:58:13 435.822/435.867
RS-15 29 Aug 05:28:45 05:32:55 11° 261° (W) 05:35:38 29.354- 29.394
Cosmos 2499 29 Aug 05:33:52 05:42:07 70° 280° (W) 05:50:54 435.465 / 435.565
PHONESAT 2.4 29 Aug 05:48:58 05:50:40 13° 144° (SE) 05:52:27 2401.200-2431.200
O/OREOS (USA 219) 29 Aug 05:52:22 05:56:55 59° 67° (ENE) 06:01:27 437.305
HORYU 2 29 Aug 06:03:12 06:06:40 22° 291° (WNW) 06:09:59 437.375
VERMONT LUNAR 29 Aug 06:03:24 06:06:19 49° 344° (NNW) 06:09:14 437.305
Cubesat XI-IV 29 Aug 06:07:11 06:09:24 13° 90° (E) 06:11:58 437.490
AO-7 29 Aug 06:15:53 06:23:32 42° 295° (WNW) 06:31:03 29.400- 29.500
CUBESAT XI-V 29 Aug 06:31:55 06:36:31 84° 258° (WSW) 06:41:09 437.345
PRISM 29 Aug 06:42:57 06:45:52 20° 70° (ENE) 06:48:54 437.425
STRAND 1 29 Aug 06:45:39 06:50:14 36° 71° (ENE) 06:54:54 437.568
CUTE-I 29 Aug 06:51:01 06:55:53 37° 97° (E) 07:00:49 437.470
PHONESAT 2.4 29 Aug 07:24:48 07:28:12 75° 157° (SSE) 07:31:36 2401.200-2431.200
Cosmos 2499 29 Aug 07:34:17 07:37:22 12° 302° (WNW) 07:39:43 435.465 / 435.565
O/OREOS (USA 219) 29 Aug 07:34:38 07:35:53 11° 261° (W) 07:36:49 437.305
VERMONT LUNAR 29 Aug 07:40:24 07:43:05 30° 1° (N) 07:45:47 437.305
Cubesat XI-IV 29 Aug 07:44:46 07:50:03 65° 286° (WNW) 07:55:19 437.490
GOMX 1 29 Aug 07:47:05 07:49:54 15° 89° (E) 07:53:01 467.674
YUBILEINY 29 Aug 08:01:40 08:09:06 31° 71° (ENE) 08:16:44 435.215
DOVE 4 29 Aug 08:15:05 08:18:15 16° 90° (E) 08:21:39 437.250
AIST 1 29 Aug 08:16:04 08:19:45 30° 91° (E) 08:23:30
PRISM 29 Aug 08:17:36 08:21:09 27° 264° (W) 08:24:38 437.425
STRAND 1 29 Aug 08:25:32 08:29:33 23° 266° (W) 08:33:28 437.568
CUTE-I 29 Aug 08:31:32 08:35:47 24° 292° (WNW) 08:39:55 437.470
BRITE-PL 29 Aug 08:38:48 08:44:19 82° 101° (E) 08:50:01 437.365/2234.400
CUTE 1.7 + AOD 2 29 Aug 08:39:09 08:41:33 15° 92° (E) 08:44:07 437.475
Cosmos 2491 29 Aug 08:44:50 08:52:04 32° 86° (E) 08:59:31 435.465 / 435.565
HO-68 29 Aug 08:46:20 08:52:24 30° 95° (E) 08:58:37 435.675
CANX-2 29 Aug 08:51:50 08:55:16 24° 95° (E) 08:58:46 2200.000
PHONESAT 2.4 29 Aug 09:03:02 09:06:15 38° 352° (N) 09:09:28 2401.200-2431.200
VERMONT LUNAR 29 Aug 09:16:53 09:19:50 59° 18° (NNE) 09:22:48 437.305
SEEDS 29 Aug 09:18:20 09:22:10 35° 97° (E) 09:26:01 437.485
CINEMA 3 29 Aug 09:21:19 09:25:47 32° 95° (E) 09:30:10 145.822/145.860
GOMX 1 29 Aug 09:23:04 09:28:27 64° 285° (WNW) 09:33:53 467.674
Cosmos 2504 29 Aug 09:24:13 09:25:46 11° 58° (ENE) 09:28:03 435.465 / 435.565
CUBEBUG 2 29 Aug 09:32:25 09:35:24 17° 91° (E) 09:38:31 437.445
ISS 29 Aug 09:40:14 09:43:23 56° 136° (SE) 09:46:35 145.825
COMPASS 1 29 Aug 09:44:59 09:49:05 58° 100° (E) 09:53:09 437.405
UWE-3 29 Aug 09:45:28 09:48:32 18° 92° (E) 09:51:42 435.000/436.395/437.385
ZACube-1 29 Aug 09:46:07 09:48:03 13° 90° (E) 09:50:14 437.345
DOVE 4 29 Aug 09:51:09 09:56:20 54° 286° (WNW) 10:01:28 437.250
UNISAT 6 29 Aug 09:51:51 09:54:59 19° 69° (ENE) 09:58:20 437.425
FUNcube-1 29 Aug 09:52:25 09:54:53 15° 90° (E) 09:57:33 145.935
AIST 1 29 Aug 09:54:34 09:57:30 17° 287° (WNW) 10:00:17
AAUSAT CUBESAT 2 29 Aug 09:57:46 10:01:54 70° 100° (E) 10:06:00 437.432
YUBILEINY 29 Aug 09:57:51 10:06:20 52° 269° (W) 10:14:41 435.215
CUTE 1.7 + AOD 2 29 Aug 10:13:44 10:17:38 36° 287° (WNW) 10:21:28 437.475
BRITE-PL 29 Aug 10:19:49 10:22:17 13° 294° (WNW) 10:24:26 437.365/2234.400
QB50P2 29 Aug 10:20:18 10:21:51 12° 67° (ENE) 10:23:38 145.880/145.840
TIGRISAT 29 Aug 10:20:25 10:24:38 36° 72° (ENE) 10:28:57 435.000
CUSAT 1 29 Aug 10:23:21 10:28:34 20° 67° (ENE) 10:34:26 437.405
NANOSAT C BR1 29 Aug 10:23:30 10:25:11 12° 67° (ENE) 10:27:04 145.865
AUBIESAT-1 29 Aug 10:26:50 10:31:28 56° 70° (ENE) 10:36:06 437.475
CANX-2 29 Aug 10:27:44 10:31:07 23° 289° (WNW) 10:34:22 2200.000
M-CUBED/EXP-1 PRIME 29 Aug 10:29:08 10:33:53 70° 72° (ENE) 10:38:41 437.505
DANDE 29 Aug 10:30:44 10:34:40 15° 66° (ENE) 10:39:25 436.750
HO-68 29 Aug 10:33:30 10:40:20 46° 291° (WNW) 10:47:04 435.675
QB50P1 29 Aug 10:34:48 10:37:31 17° 69° (ENE) 10:40:25 145.935-145.965
ANTELSAT 29 Aug 10:35:54 10:40:26 56° 75° (ENE) 10:45:04 437.575/2403.000
Cosmos 2491 29 Aug 10:40:16 10:48:39 49° 283° (WNW) 10:56:59 435.465 / 435.565
PHONESAT 2.4 29 Aug 10:41:17 10:44:31 40° 9° (N) 10:47:46 2401.200-2431.200
DELFI C3 29 Aug 10:42:28 10:46:26 62° 100° (E) 10:50:21 145.870
Oscar 11 29 Aug 10:43:31 10:47:50 81° 283° (WNW) 10:52:08 145.826/435.025
SO-50 29 Aug 10:49:16 10:53:55 40° 54° (NE) 10:58:28 436.795
UKube-1 29 Aug 10:50:11 10:51:46 12° 91° (E) 10:53:37 .
HUMSAT D 29 Aug 10:53:33 10:57:13 28° 95° (E) 11:00:52 437.325/437.525
VERMONT LUNAR 29 Aug 10:53:39 10:56:08 24° 212° (SSW) 10:58:37 437.305
SEEDS 29 Aug 10:55:03 10:57:42 16° 291° (WNW) 11:00:10 437.485
CINEMA 3 29 Aug 10:58:42 11:02:48 25° 290° (WNW) 11:06:42 145.822/145.860
CUBEBUG 2 29 Aug 11:07:53 11:12:18 39° 287° (WNW) 11:16:32 437.445
Cosmos 2504 29 Aug 11:11:33 11:20:02 68° 81° (E) 11:28:01 435.465 / 435.565
VELOX 1 29 Aug 11:11:37 11:14:11 16° 92° (E) 11:16:57 145.980
ISS 29 Aug 11:17:53 11:20:03 16° 332° (NNW) 11:22:09 145.825
ZACube-1 29 Aug 11:20:24 11:24:46 48° 286° (WNW) 11:29:00 437.345
UWE-3 29 Aug 11:20:59 11:25:13 36° 288° (WNW) 11:29:18 435.000/436.395/437.385
UNISAT 6 29 Aug 11:27:08 11:31:29 39° 263° (W) 11:35:53 437.425
FUNcube-1 29 Aug 11:27:13 11:31:28 41° 287° (WNW) 11:35:35 145.935
POLYITAN 1 29 Aug 11:33:03 11:37:18 88° 88° (E) 11:41:37 437.675
POPSAT HIP 1 29 Aug 11:36:49 11:41:04 86° 262° (W) 11:45:21 437.405
PCSat 29 Aug 11:38:46 11:43:41 35° 56° (NE) 11:48:38 145.827
DUCHIFAT 1 29 Aug 11:39:54 11:44:06 82° 258° (WSW) 11:48:22 145.980
50 SAT 29 Aug 11:41:31 11:45:12 41° 98° (E) 11:48:51 437.505
QB50P2 29 Aug 11:53:12 11:57:19 51° 260° (W) 12:01:30 145.880/145.840
ESTCUBE 1 29 Aug 11:54:01 11:58:08 35° 97° (E) 12:02:17 437.505/2401.250
NANOSAT C BR1 29 Aug 11:56:31 12:00:36 49° 261° (W) 12:04:45 145.865
TIGRISAT 29 Aug 11:58:06 12:01:30 19° 268° (W) 12:04:47 435.000
BUGSAT 1 29 Aug 12:00:08 12:04:10 77° 258° (WSW) 12:08:16 437.445
AUBIESAT-1 29 Aug 12:03:55 12:06:29 14° 265° (W) 12:08:46 437.475
CUSAT 1 29 Aug 12:04:05 12:11:51 82° 263° (W) 12:20:07 437.405
DX 1 29 Aug 12:06:48 12:11:11 71° 284° (WNW) 12:15:33 434.975-435.025
M-CUBED/EXP-1 PRIME 29 Aug 12:07:38 12:09:08 11° 267° (W) 12:10:17 437.505
QB50P1 29 Aug 12:09:16 12:13:08 34° 263° (W) 12:17:00 145.935-145.965
DANDE 29 Aug 12:11:08 12:18:40 82° 81° (E) 12:27:14 436.750
ANTELSAT 29 Aug 12:15:35 12:17:38 12° 271° (W) 12:19:24 437.575/2403.000
AISAT 29 Aug 12:17:26 12:21:56 85° 285° (WNW) 12:26:25 437.250
PHONESAT 2.4 29 Aug 12:19:09 12:22:32 65° 205° (SSW) 12:25:55 2401.200-2431.200
UKube-1 29 Aug 12:24:01 12:28:13 49° 286° (WNW) 12:32:24 .
CUBEBUG 1 29 Aug 12:26:45 12:31:10 71° 102° (ESE) 12:35:35 437.445
HUMSAT D 29 Aug 12:29:36 12:32:47 20° 290° (WNW) 12:35:48 437.325/437.525
SO-50 29 Aug 12:30:31 12:34:12 21° 250° (WSW) 12:37:41 436.795
SPROUT 29 Aug 12:33:50 12:37:18 24° 94° (E) 12:40:50 437.525
VELOX 1 29 Aug 12:46:44 12:50:56 40° 287° (WNW) 12:55:06 145.980
GONETS M04 29 Aug 12:51:10 12:54:11 12° 60° (ENE) 12:57:59
Cosmos 2504 29 Aug 13:05:21 13:11:30 22° 277° (W) 13:17:01 435.465 / 435.565
50 SAT 29 Aug 13:17:51 13:19:22 12° 292° (WNW) 13:20:42 437.505
PCSat 29 Aug 13:22:23 13:27:00 28° 251° (WSW) 13:31:29 145.827
ESTCUBE 1 29 Aug 13:31:36 13:34:45 19° 291° (WNW) 13:37:47 437.505/2401.250
Oscar 19 29 Aug 13:32:30 13:37:34 63° 74° (ENE) 13:42:43 437.125/150
SWISSCUBE 29 Aug 13:47:22 13:50:02 15° 91° (E) 13:52:55 437.505
TISAT 1 29 Aug 13:48:08 13:52:25 81° 281° (WNW) 13:56:41 437.305
JUGNU 29 Aug 13:48:51 13:50:23 11° 167° (SSE) 13:52:01 437.505
CUSAT 1 29 Aug 13:49:29 13:53:43 15° 275° (W) 13:57:29 437.405
Gurwin Techsat 1B 29 Aug 13:52:27 13:56:56 29° 70° (ENE) 14:01:30 435.225
DANDE 29 Aug 13:56:08 14:01:25 19° 272° (W) 14:06:34 436.750
PHONESAT 2.4 29 Aug 13:58:52 14:00:01 11° 217° (SW) 14:01:04 2401.200-2431.200
SPROUT 29 Aug 14:09:43 14:13:19 25° 289° (WNW) 14:16:50 437.525
ITUPSAT 1 29 Aug 14:23:14 14:27:32 34° 97° (E) 14:31:52 437.325
ITAMSAT 1 29 Aug 14:25:32 14:30:30 50° 73° (ENE) 14:35:31 435.822/435.867
GONETS M04 29 Aug 14:44:05 14:52:54 75° 81° (E) 15:01:44
JAS-2 29 Aug 14:46:47 14:53:58 52° 71° (ENE) 15:01:34 435.910
BEESAT 29 Aug 14:57:53 15:02:39 85° 100° (E) 15:07:24 436.000
BEESAT 3 29 Aug 14:58:48 15:01:44 20° 112° (ESE) 15:04:49 437.485
BEESAT 2 29 Aug 15:07:03 15:09:50 18° 111° (ESE) 15:12:46 435.950
Oscar 19 29 Aug 15:15:00 15:17:27 13° 271° (W) 15:19:34 437.125/150
KKS-1 29 Aug 15:15:43 15:18:50 19° 93° (E) 15:22:05 437.445
AO-7 29 Aug 15:18:51 15:26:30 43° 65° (ENE) 15:34:16 29.400- 29.500
RS-15 29 Aug 15:20:54 15:28:48 25° 104° (ESE) 15:37:24 29.354- 29.394
HORYU 2 29 Aug 15:22:13 15:25:27 20° 69° (ENE) 15:28:49 437.375
SWISSCUBE 29 Aug 15:23:38 15:28:11 46° 287° (WNW) 15:32:42 437.505
Cosmos 2499 29 Aug 15:29:29 15:37:23 39° 73° (ENE) 15:44:56 435.465 / 435.565
Gurwin Techsat 1B 29 Aug 15:32:12 15:36:51 30° 264° (W) 15:41:28 435.225
JUGNU 29 Aug 15:35:09 15:38:39 16° 177° (S) 15:42:08 437.505
ITUPSAT 1 29 Aug 16:01:35 16:05:14 22° 291° (WNW) 16:08:46 437.325
ITAMSAT 1 29 Aug 16:07:00 16:10:21 17° 268° (W) 16:13:27 435.822/435.867
ISS 29 Aug 16:10:25 16:12:57 21° 31° (NNE) 16:15:31 145.825
JAS-2 29 Aug 16:32:45 16:39:16 30° 268° (W) 16:45:53 435.910
BEESAT 3 29 Aug 16:35:53 16:39:30 30° 306° (NW) 16:43:06 437.485
STARS 29 Aug 16:39:02 16:43:31 81° 284° (WNW) 16:47:56 437.465
SRMSAT 29 Aug 16:40:22 16:43:30 15° 172° (S) 16:46:40 437.500
GONETS M04 29 Aug 16:42:56 16:48:57 20° 277° (W) 16:54:28
BEESAT 2 29 Aug 16:43:56 16:47:40 33° 306° (NW) 16:51:24 435.950
MOZHAYETS 4 29 Aug 16:45:18 16:49:02 25° 95° (E) 16:52:51
KKS-1 29 Aug 16:51:30 16:55:34 34° 288° (WNW) 16:59:34 437.445
HORYU 2 29 Aug 16:57:50 17:01:54 32° 263° (W) 17:05:56 437.375
AIST 2 29 Aug 17:01:55 17:06:08 71° 118° (ESE) 17:10:22 435.215
AO-7 29 Aug 17:11:39 17:19:21 39° 262° (W) 17:26:56 29.400- 29.500
Cosmos 2499 29 Aug 17:22:39 17:30:34 40° 272° (W) 17:37:53 435.465 / 435.565
JUGNU 29 Aug 17:23:43 17:26:55 15° 187° (S) 17:30:04 437.505
Cubesat XI-IV 29 Aug 17:26:06 17:29:28 18° 66° (ENE) 17:33:02 437.490
RS-15 29 Aug 17:29:17 17:40:11 75° 302° (WNW) 17:51:32 29.354- 29.394
ISS 29 Aug 17:46:25 17:49:26 36° 226° (SW) 17:52:26 145.825
CUTE-I 29 Aug 18:09:58 18:15:00 46° 72° (ENE) 18:20:05 437.470
MOZHAYETS 4 29 Aug 18:22:25 18:26:13 26° 289° (WNW) 18:29:55
SRMSAT 29 Aug 18:28:20 18:31:56 16° 182° (S) 18:35:31 437.500
CUBESAT XI-V 29 Aug 18:31:49 18:35:51 30° 96° (E) 18:39:58 437.345
AIST 2 29 Aug 18:43:31 18:45:13 12° 315° (NW) 18:46:45 435.215
STRAND 1 29 Aug 19:00:18 19:03:05 15° 91° (E) 19:06:07 437.568
Cosmos 2491 29 Aug 19:00:54 19:03:38 12° 60° (ENE) 19:07:08 435.465 / 435.565
Cubesat XI-IV 29 Aug 19:04:00 19:09:12 52° 260° (W) 19:14:24 437.490
HO-68 29 Aug 19:13:54 19:18:04 17° 60° (ENE) 19:22:36 435.675
DOVE 4 29 Aug 19:20:29 19:20:59 10° 64° (ENE) 19:21:48 437.250
CANX-2 29 Aug 19:43:18 19:45:19 14° 68° (ENE) 19:47:32 2200.000
RS-15 29 Aug 19:46:42 19:55:07 23° 330° (NNW) 20:03:26 29.354- 29.394
BRITE-PL 29 Aug 19:47:27 19:51:38 63° 76° (ENE) 19:56:08 437.365/2234.400
CUTE-I 29 Aug 19:51:35 19:55:21 19° 268° (W) 19:58:56 437.470
O/OREOS (USA 219) 29 Aug 20:01:29 20:05:58 66° 292° (WNW) 20:10:31 437.305
PRISM 29 Aug 20:01:54 20:05:51 46° 99° (E) 20:09:49 437.425
AIST 1 29 Aug 20:02:48 20:07:08 82° 81° (E) 20:11:30
SEEDS 29 Aug 20:08:15 20:11:06 18° 70° (ENE) 20:14:06 437.485
CUBESAT XI-V 29 Aug 20:09:29 20:13:10 23° 290° (WNW) 20:16:44 437.345
SRMSAT 29 Aug 20:18:17 20:20:22 12° 192° (SSW) 20:22:21 437.500
CINEMA 3 29 Aug 20:20:39 20:24:02 21° 69° (ENE) 20:27:39 145.822/145.860
GOMX 1 29 Aug 20:28:30 20:32:52 79° 259° (W) 20:37:34 467.674
CUBEBUG 2 29 Aug 20:29:33 20:30:45 11° 65° (ENE) 20:32:14 437.445
COMPASS 1 29 Aug 20:33:29 20:37:01 27° 72° (ENE) 20:40:37 437.405
STRAND 1 29 Aug 20:37:42 20:42:40 53° 287° (WNW) 20:47:36 437.568
UWE-3 29 Aug 20:41:25 20:42:47 11° 66° (ENE) 20:44:26 435.000/436.395/437.385
AAUSAT CUBESAT 2 29 Aug 20:45:39 20:49:21 31° 73° (ENE) 20:53:06 437.432
Cosmos 2491 29 Aug 20:53:38 21:02:24 74° 82° (E) 21:11:11 435.465 / 435.565
DOVE 4 29 Aug 20:53:38 20:58:05 72° 260° (W) 21:02:51 437.250
HO-68 29 Aug 20:57:53 21:05:03 83° 255° (WSW) 21:12:17 435.675
YUBILEINY 29 Aug 20:58:45 21:06:32 39° 88° (E) 21:14:31 435.215
CUTE 1.7 + AOD 2 29 Aug 21:02:55 21:07:12 77° 257° (WSW) 21:11:31 437.475
CANX-2 29 Aug 21:16:44 21:20:53 46° 261° (W) 21:25:01 2200.000
DELFI C3 29 Aug 21:26:58 21:30:16 25° 72° (ENE) 21:33:38 145.870
Oscar 11 29 Aug 21:35:07 21:39:20 52° 75° (ENE) 21:43:36 145.826/435.025
PRISM 29 Aug 21:39:09 21:40:55 12° 293° (WNW) 21:42:29 437.425
SEEDS 29 Aug 21:42:51 21:46:41 32° 263° (W) 21:50:30 437.485
HUMSAT D 29 Aug 21:43:25 21:45:50 15° 68° (ENE) 21:48:26 437.325/437.525
CINEMA 3 29 Aug 21:56:47 22:00:59 34° 264° (W) 22:05:20 145.822/145.860
CUBEBUG 2 29 Aug 22:02:19 22:06:52 68° 259° (W) 22:11:35 437.445
RS-15 29 Aug 22:08:47 22:13:49 13° 5° (N) 22:19:05 29.354- 29.394
VELOX 1 29 Aug 22:08:59 22:09:16 10° 65° (ENE) 22:09:49 145.980
COMPASS 1 29 Aug 22:09:27 22:12:41 20° 266° (W) 22:15:48 437.405
ZACube-1 29 Aug 22:12:38 22:17:08 89° 237° (WSW) 22:21:45 437.345
UWE-3 29 Aug 22:14:15 22:18:46 64° 260° (W) 22:23:24 435.000/436.395/437.385
FUNcube-1 29 Aug 22:19:08 22:23:38 78° 258° (WSW) 22:28:13 145.935
AAUSAT CUBESAT 2 29 Aug 22:22:07 22:25:02 17° 267° (W) 22:27:47 437.432
50 SAT 29 Aug 22:23:03 22:25:30 16° 70° (ENE) 22:28:05 437.505
ANTELSAT 29 Aug 22:32:32 22:34:58 15° 91° (E) 22:37:34 437.575/2403.000
ESTCUBE 1 29 Aug 22:51:16 22:54:48 24° 70° (ENE) 22:58:26 437.505/2401.250
HO-68 29 Aug 22:51:34 22:53:57 11° 273° (W) 22:55:41 435.675
Cosmos 2491 29 Aug 22:52:28 22:58:29 20° 277° (W) 23:04:02 435.465 / 435.565
YUBILEINY 29 Aug 22:55:08 23:03:19 41° 286° (WNW) 23:11:28 435.215
DX 1 29 Aug 22:59:15 23:03:33 68° 75° (ENE) 23:07:52 434.975-435.025
DELFI C3 29 Aug 23:02:11 23:05:18 21° 266° (W) 23:08:19 145.870
AISAT 29 Aug 23:12:05 23:16:24 59° 75° (ENE) 23:20:46 437.250
Oscar 11 29 Aug 23:14:26 23:15:54 11° 270° (W) 23:17:05 145.826/435.025
UKube-1 29 Aug 23:15:29 23:19:47 86° 257° (WSW) 23:24:07 .
HUMSAT D 29 Aug 23:17:10 23:21:15 41° 262° (W) 23:25:20 437.325/437.525
CUBEBUG 1 29 Aug 23:20:05 23:24:05 39° 73° (ENE) 23:28:08 437.445
UNISAT 6 29 Aug 23:21:52 23:26:23 55° 100° (E) 23:30:46 437.425
POLYITAN 1 29 Aug 23:22:20 23:25:15 18° 93° (E) 23:28:17 437.675
POPSAT HIP 1 29 Aug 23:25:45 23:28:48 19° 93° (E) 23:31:58 437.405
SPROUT 29 Aug 23:26:36 23:28:34 13° 68° (ENE) 23:30:46 437.525
DUCHIFAT 1 29 Aug 23:28:15 23:31:20 20° 94° (E) 23:34:32 145.980
Cosmos 2504 29 Aug 23:37:11 23:44:50 55° 91° (E) 23:53:04 435.465 / 435.565
VELOX 1 29 Aug 23:40:57 23:45:18 66° 259° (W) 23:49:42 145.980
QB50P2 29 Aug 23:41:32 23:45:20 31° 97° (E) 23:49:10 145.880/145.840
NANOSAT C BR1 29 Aug 23:44:20 23:48:09 31° 97° (E) 23:52:00 145.865
AUBIESAT-1 29 Aug 23:45:25 23:49:19 64° 105° (ESE) 23:52:54 437.475
BUGSAT 1 29 Aug 23:45:52 23:48:54 19° 94° (E) 23:52:04 437.445
M-CUBED/EXP-1 PRIME 29 Aug 23:48:27 23:52:29 88° 107° (ESE) 23:56:08 437.505
TIGRISAT 29 Aug 23:51:21 23:55:56 70° 284° (WNW) 00:00:23 435.000
50 SAT 29 Aug 23:56:14 23:59:48 31° 263° (W) 00:03:19 437.505
QB50P1 29 Aug 23:56:48 00:00:56 46° 99° (E) 00:05:04 145.935-145.965
ANTELSAT 30 Aug 00:07:40 00:12:02 43° 287° (WNW) 00:16:15 437.575/2403.000
RS-15 30 Aug 00:22:06 00:31:55 30° 39° (NE) 00:42:21 29.354- 29.394
ESTCUBE 1 30 Aug 00:27:44 00:31:34 27° 264° (W) 00:35:21 437.505/2401.250
TISAT 1 30 Aug 00:37:08 00:41:11 49° 74° (ENE) 00:45:16 437.305
SWISSCUBE 30 Aug 00:52:01 00:54:15 14° 66° (ENE) 00:56:44 437.505
AISAT 30 Aug 00:52:52 00:53:26 10° 271° (W) 00:53:40 437.250
BEESAT 3 30 Aug 00:56:21 01:00:21 62° 59° (ENE) 01:04:16 437.485
POLYITAN 1 30 Aug 00:57:22 01:01:14 32° 288° (WNW) 01:05:02 437.675
CUBEBUG 1 30 Aug 00:58:07 01:00:39 15° 268° (W) 01:03:00 437.445
SPROUT 30 Aug 01:00:09 01:04:17 46° 261° (W) 01:08:26 437.525
UNISAT 6 30 Aug 01:00:34 01:02:41 13° 294° (WNW) 01:04:33 437.425
POPSAT HIP 1 30 Aug 01:00:55 01:04:43 30° 288° (WNW) 01:08:26 437.405
SO-50 30 Aug 01:01:16 01:05:05 25° 111° (ESE) 01:09:05 436.795
DUCHIFAT 1 30 Aug 01:03:26 01:07:10 29° 288° (WNW) 01:10:50 145.980
BEESAT 2 30 Aug 01:05:08 01:09:08 57° 58° (ENE) 01:13:03 435.950
CUSAT 1 30 Aug 01:09:17 01:12:40 48° 284° (WNW) 01:17:07 437.405
QB50P2 30 Aug 01:17:54 01:21:01 19° 291° (WNW) 01:24:01 145.880/145.840
BUGSAT 1 30 Aug 01:20:40 01:24:24 30° 288° (WNW) 01:28:05 437.445
NANOSAT C BR1 30 Aug 01:20:43 01:23:46 19° 291° (WNW) 01:26:43 145.865
DANDE 30 Aug 01:21:45 01:24:49 59° 281° (W) 01:28:48 436.750
AIST 2 30 Aug 01:27:03 01:30:07 20° 50° (NE) 01:33:15 435.215
ITUPSAT 1 30 Aug 01:27:25 01:31:29 29° 70° (ENE) 01:35:37 437.325
Cosmos 2504 30 Aug 01:30:44 01:37:34 28° 290° (WNW) 01:44:28 435.465 / 435.565
QB50P1 30 Aug 01:34:12 01:36:26 14° 292° (WNW) 01:38:26 145.935-145.965
Oscar 19 30 Aug 01:47:31 01:51:55 28° 95° (E) 01:56:23 437.125/150
GONETS M04 30 Aug 01:49:34 01:53:50 16° 81° (E) 01:58:45
BEESAT 30 Aug 02:01:16 02:06:01 69° 75° (ENE) 02:10:46 436.000
KKS-1 30 Aug 02:12:28 02:14:20 13° 67° (ENE) 02:16:27 437.445
Gurwin Techsat 1B 30 Aug 02:12:46 02:15:22 14° 90° (E) 02:18:16 435.225
TISAT 1 30 Aug 02:15:54 02:17:17 11° 270° (W) 02:18:25 437.305
PCSat 30 Aug 02:17:05 02:22:21 57° 113° (ESE) 02:27:41 145.827
SWISSCUBE 30 Aug 02:26:59 02:31:41 56° 260° (W) 02:36:23 437.505
SO-50 30 Aug 02:41:07 02:45:29 34° 307° (NW) 02:49:56 436.795
ITAMSAT 1 30 Aug 02:41:59 02:45:55 22° 94° (E) 02:50:00 435.822/435.867
